CW5920 Weather Reports


time (UTC)temp
F
wind
direction
speed
knots
gust
knots
rain 1hr
in
rain 24hr
in
rain mn
in
humidity
%
barometer
mb
20260831185017 99 113 9.6 13.0 0.00 0.00 0.00 36 1016.0
20260831184017 99 135 8.7 13.0 0.00 0.00 0.00 36 1016.1
20260831183017 99 135 9.6 16.5 0.00 0.00 0.00 36 1016.1
20260831182017 98 135 6.1 13.0 0.00 0.00 0.00 38 1016.2
20260831181017 98 135 9.6 17.4 0.00 0.00 0.00 37 1016.5
20260831180017 98 203 2.6 12.2 0.00 0.00 0.00 38 1016.6
20260831175017 98 158 5.2 14.8 0.00 0.00 0.00 37 1016.9
20260831174017 98 113 2.6 8.7 0.00 0.00 0.00 38 1017.1
20260831173017 97 135 6.1 16.5 0.00 0.00 0.00 39 1017.2
20260831172037 97 135 5.2 10.4 0.00 0.00 0.00 39 1017.2
20260831171037 96 135 7.0 12.2 0.00 0.00 0.00 40 1017.3
20260831170017 96 158 5.2 11.3 0.00 0.00 0.00 39 1017.4
20260831165017 96 135 6.1 11.3 0.00 0.00 0.00 40 1017.4
20260831164017 96 135 1.7 11.3 0.00 0.00 0.00 40 1017.3
20260831163017 95 158 4.3 9.6 0.00 0.00 0.00 41 1017.3
20260831162017 94 158 2.6 8.7 0.00 0.00 0.00 43 1017.3
20260831161037 94 135 2.6 9.6 0.00 0.00 0.00 44 1017.2
20260831160017 93 158 3.5 10.4 0.00 0.00 0.00 45 1017.2
20260831155017 92 158 0.9 11.3 0.00 0.00 0.00 47 1017.2
20260831154017 92 158 2.6 8.7 0.00 0.00 0.00 50 1017.2
20260831153017 91 158 1.7 7.0 0.00 0.00 0.00 52 1017.1
20260831152037 90 158 2.6 8.7 0.00 0.00 0.00 54 1017.0
20260831151037 89 158 0.9 4.3 0.00 0.00 0.00 56 1017.0
20260831150017 88 158 1.7 12.2 0.00 0.00 0.00 60 1017.0
20260831145037 87 225 0.9 2.6 0.00 0.00 0.00 61 1016.9
20260831144017 86 203 0.9 5.2 0.00 0.00 0.00 63 1016.9
20260831143017 85 180 1.7 8.7 0.00 0.00 0.00 64 1016.9
20260831142037 85 158 2.6 8.7 0.00 0.00 0.00 66 1016.9
20260831141017 84 158 1.7 9.6 0.00 0.00 0.00 68 1016.9
20260831140017 83 158 3.5 8.7 0.00 0.00 0.00 70 1016.9
20260831135037 82 158 2.6 5.2 0.00 0.00 0.00 72 1016.8
20260831134017 82 158 3.5 10.4 0.00 0.00 0.00 73 1016.7
20260831133017 81 158 3.5 8.7 0.00 0.00 0.00 74 1016.6
20260831132037 81 158 4.3 9.6 0.00 0.00 0.00 75 1016.3
20260831131017 80 158 4.3 11.3 0.00 0.00 0.00 76 1016.3
20260831130017 79 158 4.3 10.4 0.00 0.00 0.00 77 1016.2
20260831125017 79 158 4.3 9.6 0.00 0.00 0.00 78 1016.1
20260831124017 79 158 2.6 7.0 0.00 0.00 0.00 78 1015.8
20260831123017 78 158 2.6 6.1 0.00 0.00 0.00 78 1015.8
20260831122017 78 158 2.6 7.0 0.00 0.00 0.00 78 1015.7
20260831121117 78 158 2.6 5.2 0.00 0.00 0.00 77 1015.6
20260831120017 78 158 2.6 7.0 0.00 0.00 0.00 77 1015.5
20260831115017 79 158 3.5 8.7 0.00 0.00 0.00 77 1015.3
20260831114017 79 158 3.5 9.6 0.00 0.00 0.00 77 1015.3
20260831113017 79 158 2.6 6.1 0.00 0.00 0.00 76 1015.2
20260831112017 79 158 3.5 7.8 0.00 0.00 0.00 76 1015.2
20260831111017 79 158 2.6 6.1 0.00 0.00 0.00 75 1015.0
20260831110017 79 158 4.3 8.7 0.00 0.00 0.00 75 1015.0
20260831105017 80 158 4.3 8.7 0.00 0.00 0.00 74 1015.0
20260831104017 80 158 1.7 5.2 0.00 0.00 0.00 73 1015.0
20260831103017 80 158 1.7 7.0 0.00 0.00 0.00 73 1015.0
20260831102017 80 158 2.6 7.0 0.00 0.00 0.00 72 1015.1
20260831101017 80 158 3.5 7.8 0.00 0.00 0.00 72 1015.1
20260831100017 81 180 1.7 5.2 0.00 0.00 0.00 71 1015.0
20260831095017 81 158 4.3 7.8 0.00 0.00 0.00 71 1015.0
20260831094037 81 158 3.5 8.7 0.00 0.00 0.00 70 1015.0
20260831093017 81 158 2.6 7.0 0.00 0.00 0.00 69 1015.0
20260831092017 81 158 3.5 7.0 0.00 0.00 0.00 69 1014.9
20260831091017 81 158 2.6 7.0 0.00 0.00 0.00 68 1014.9
20260831090017 81 158 1.7 7.0 0.00 0.00 0.00 67 1014.8
20260831085016 82 158 1.7 8.7 0.00 0.00 0.00 67 1014.8
20260831084036 82 158 1.7 7.0 0.00 0.00 0.00 66 1014.8
20260831083016 82 158 0.9 5.2 0.00 0.00 0.00 66 1014.7
20260831082036 82 158 0.9 5.2 0.00 0.00 0.00 65 1014.8
20260831081116 83 158 1.7 7.8 0.00 0.00 0.00 64 1014.8
20260831080016 83 180 1.7 7.8 0.00 0.00 0.00 63 1014.9
20260831075016 83 158 3.5 8.7 0.00 0.00 0.00 63 1014.8
20260831074016 84 158 1.7 11.3 0.00 0.00 0.00 62 1014.8
20260831073056 84 158 3.5 9.6 0.00 0.00 0.00 61 1014.8
20260831072016 84 158 2.6 8.7 0.00 0.00 0.00 60 1014.8
20260831071056 85 158 3.5 11.3 0.00 0.00 0.00 58 1014.8
20260831070056 85 158 6.1 12.2 0.00 0.00 0.00 57 1014.8
20260831065016 85 158 2.6 10.4 0.00 0.00 0.00 55 1014.9
20260831064036 86 158 4.3 10.4 0.00 0.00 0.00 54 1015.0
20260831063036 86 158 5.2 11.3 0.00 0.00 0.00 54 1015.0
20260831062016 86 158 6.1 13.9 0.00 0.00 0.00 53 1015.0
20260831061015 86 158 7.0 10.4 0.00 0.00 0.00 52 1014.9
20260831060016 86 158 3.5 7.8 0.00 0.00 0.00 51 1014.9
20260831055016 87 158 3.5 7.8 0.00 0.00 0.00 50 1015.0
20260831054016 87 158 6.1 10.4 0.00 0.00 0.00 50 1015.0
20260831053016 87 158 5.2 9.6 0.00 0.00 0.00 49 1014.9
20260831052016 87 158 5.2 12.2 0.00 0.00 0.00 48 1014.7
20260831051016 88 158 5.2 8.7 0.00 0.00 0.00 47 1014.7
20260831050016 88 158 4.3 8.7 0.00 0.00 0.00 47 1014.8
20260831045016 88 158 4.3 7.8 0.00 0.00 0.00 47 1014.7
20260831044016 88 135 5.2 7.8 0.00 0.00 0.00 47 1014.6
20260831043016 87 158 5.2 9.6 0.00 0.00 0.00 47 1014.6
20260831042016 87 158 4.3 9.6 0.00 0.00 0.00 48 1014.5
20260831040016 86 135 2.6 6.1 0.00 0.00 0.00 48 1014.5
20260831035016 86 135 1.7 4.3 0.00 0.00 0.00 48 1014.4
20260831034016 86 135 1.7 2.6 0.00 0.00 0.00 47 1014.2
20260831033016 87 135 0.9 2.6 0.00 0.00 0.00 45 1014.1
20260831032016 88 135 2.6 3.5 0.00 0.00 0.00 45 1014.1
20260831031015 88 158 0.9 2.6 0.00 0.00 0.00 44 1014.0
20260831030016 89 158 1.7 5.2 0.00 0.00 0.00 43 1013.9
20260831025016 89 135 2.6 4.3 0.00 0.00 0.00 43 1013.7
20260831024016 89 158 3.5 5.2 0.00 0.00 0.00 42 1013.6
20260831023016 89 135 2.6 5.2 0.00 0.00 0.00 42 1013.4
20260831022016 89 158 1.7 4.3 0.00 0.00 0.00 41 1013.3
20260831021016 90 158 0.9 2.6 0.00 0.00 0.00 40 1013.2
20260831020015 90 0.0 1.7 0.00 0.00 0.00 39 1013.0
20260831015016 91 0.0 0.9 0.00 0.00 0.00 38 1013.0
20260831014055 92 158 1.7 4.3 0.00 0.00 0.00 38 1012.6
20260831013016 92 158 1.7 4.3 0.00 0.00 0.00 37 1012.6
20260831012016 93 158 2.6 5.2 0.00 0.00 0.00 35 1012.6
20260831011016 93 158 2.6 7.0 0.00 0.00 0.00 35 1012.5
20260831010056 94 158 1.7 4.3 0.00 0.00 0.00 34 1012.5
20260831005015 95 158 2.6 5.2 0.00 0.00 0.00 34 1012.4
20260831004016 95 158 3.5 7.0 0.00 0.00 0.00 34 1012.5
20260831003016 96 135 2.6 4.3 0.00 0.00 0.00 33 1012.4
20260831002016 96 135 4.3 7.8 0.00 0.00 0.00 32 1012.5
20260831001036 96 135 5.2 8.7 0.00 0.00 0.00 32 1012.4
20260831000015 97 113 7.0 10.4 0.00 0.00 0.00 31 1012.6
20260830235015 97 135 6.1 9.6 0.00 0.00 0.00 31 1012.5
20260830234016 97 135 7.0 11.3 0.00 0.00 0.00 31 1012.6
20260830233016 98 135 7.8 13.9 0.00 0.00 0.00 32 1012.7
20260830232016 98 135 8.7 13.0 0.00 0.00 0.00 32 1012.7
20260830231016 98 135 7.0 13.0 0.00 0.00 0.00 32 1012.6
20260830230016 98 135 7.8 13.9 0.00 0.00 0.00 31 1012.7
20260830225036 98 113 7.8 13.0 0.00 0.00 0.00 31 1012.7
20260830224015 98 135 7.8 12.2 0.00 0.00 0.00 31 1012.8
20260830223016 99 135 7.8 13.9 0.00 0.00 0.00 30 1012.8
20260830222016 99 135 10.4 15.6 0.00 0.00 0.00 30 1012.9
20260830221035 100 135 6.1 9.6 0.00 0.00 0.00 28 1012.8
20260830220015 100 135 4.3 12.2 0.00 0.00 0.00 29 1012.9
20260830215035 100 113 8.7 13.9 0.00 0.00 0.00 28 1012.9
20260830214016 100 113 7.0 12.2 0.00 0.00 0.00 28 1013.0
20260830213015 100 113 7.0 12.2 0.00 0.00 0.00 26 1013.1
20260830212016 100 135 7.8 13.9 0.00 0.00 0.00 29 1013.0
20260830211015 100 135 5.2 7.8 0.00 0.00 0.00 30 1013.2
20260830210016 100 113 7.8 11.3 0.00 0.00 0.00 29 1013.4
20260830205015 101 113 7.8 11.3 0.00 0.00 0.00 30 1013.5
20260830204015 101 135 7.0 12.2 0.00 0.00 0.00 29 1013.7
20260830203016 102 158 5.2 12.2 0.00 0.00 0.00 29 1013.9
20260830202015 101 113 8.7 15.6 0.00 0.00 0.00 30 1014.0
20260830201016 102 135 7.8 14.8 0.00 0.00 0.00 30 1014.1
20260830200035 102 135 6.1 10.4 0.00 0.00 0.00 31 1014.2
20260830195015 101 135 6.1 11.3 0.00 0.00 0.00 31 1014.3
20260830194016 101 158 1.7 10.4 0.00 0.00 0.00 30 1014.4
20260830193015 101 158 3.5 12.2 0.00 0.00 0.00 31 1014.5
20260830192015 101 135 7.8 13.9 0.00 0.00 0.00 31 1014.7
20260830191036 100 113 4.3 10.4 0.00 0.00 0.00 31 1014.9
20260830190016 100 135 6.1 14.8 0.00 0.00 0.00 31 1014.9